FENGYUN 1C DEB, 29798

Orbit data source: Space-Track

FENGYUN 1C DEB, 29798 is space debris in SSO originally from a launch on Mon, 10 May 1999 UTC launched from the Taiyaun Space Center, China (TSC). Fengyun 1C debris stems from the Chinese weather satellite Fengyun-1C, which was intentionally destroyed by a Chinese anti-satellite missile in 2007. This event dramatically increased the amount of space debris, with thousands of trackable fragments posing hazards to satellites and human spaceflight. The Fengyun 1C debris cloud has become a focal point in discussions about space sustainability and the need for international regulations to prevent the creation of new debris.

Loading next visibility...
Identifier
29798, 1999-025CQ
Orbit
SSO
Country
Flag of CNCN / PRC
Related business
Manufacturer
Unknown
Mission
Spacecraft
Bus & Motor
Unknown
Mass
Unknown
Launch date (UTC)
1999-05-10 (27 years ago)
Launch vehicle
Unknown
Launch site
Taiyaun Space Center, China (TSC)
Object type
Payload
Rocket body
Debris
Shape & HBR
Unknown shape, 0.1 m
Radar Cross Section
Small (<0.1 m²)

Expand to show TLE details & history
Last TLE update: 11 hours ago

TLE from 11 hours ago
0 FENGYUN 1C DEB
1 29798U 99025CQ  26072.97795363  .00001591  00000-0  10590-2 0  9999
2 29798  99.2869 143.3022 0107126  25.6579 152.2514 13.99991726972011
Epoch: 2026-03-13T23:28Z
TLE epoch observation values (Epoch: 2026-03-13T23:28:15.193Z)
Latitude
1.40014°
Longitude
159.86097°
Altitude
965.656 km
Speed
7.334 km/s
True Right ascension
21h 34m 07s
True Declination
1° 23' 31"
Sunlit
Object was in daylight at epoch
Visualization orbit readout
Latitude
Unknown
Longitude
Unknown
Altitude
Unknown
Speed
Unknown
Apparent Right ascension
Unknown
Apparent Declination
Unknown
Sunlit
N/A
Visualization observer readout
Local Sidereal Time
14:38:51
Azimuth
Unknown
Elevation
Unknown
Doppler factor
Unknown
Orbital elements
Apogee altitude
968.909 km
Perigee altitude
813.165 km
Semi-major axis
7,269.174 km
Eccentricity
0.01071
Inclination
99.2869°
RAAN
143.3022°
Arg. of periapsis
25.6579°
True anomaly
152.81624°
Mean anomaly
152.2514°
Eccentric anomaly
152.53449°
Mean motion
3.502 °/min
Orbital period
102.8 mins
BSTAR
0.001059
Loading maneuver chart data...
Computing Atmospheric mass density...

Documentation

Showing up to 5 results
|